When you browse on this site, cookies collect data to enhance your experience and personalize the content and advertising you see.
Visit our Privacy Policy to learn more. By continuing to use the site, you agree to this use of cookies and data.
  • en Suisse
  • Liste des pays
  • À 7 jours
  • Température de l'eau
  • Carte météo
  • Widgets météo
  • user-avatar
    Se connecter

    Météo par heure à Leicester

    Ce jour, 2 Juin, Mardi

    Heure Température Précipitation Vent Pression Humidité
    00:00 +9°C° 0 mm 2 m/s 761 mmHg 89%
    01:00 +9°C° 0 mm 2 m/s 761 mmHg 89%
    02:00 +8°C° 0 mm 2 m/s 761 mmHg 90%
    03:00 +8°C° 0 mm 2 m/s 760 mmHg 90%
    04:00 +9°C° 0 mm 2 m/s 760 mmHg 88%
    05:00 +9°C° 0 mm 2 m/s 760 mmHg 86%
    06:00 +12°C° 0 mm 2 m/s 760 mmHg 86%
    07:00 +13°C° 0 mm 2 m/s 760 mmHg 79%
    08:00 +15°C° 0 mm 2 m/s 759 mmHg 71%
    09:00 +17°C° 0 mm 2 m/s 759 mmHg 64%
    10:00 +18°C° 0 mm 2 m/s 759 mmHg 60%
    11:00 +18°C° 0 mm 2 m/s 759 mmHg 56%
    12:00 +19°C° 0 mm 2 m/s 758 mmHg 52%
    13:00 +20°C° 0 mm 2 m/s 758 mmHg 51%
    14:00 +21°C° 0 mm 2 m/s 757 mmHg 50%
    15:00 +21°C° 0 mm 2 m/s 757 mmHg 49%
    16:00 +22°C° 0 mm 1 m/s 756 mmHg 54%
    17:00 +22°C° 0 mm 1 m/s 756 mmHg 59%
    18:00 +22°C° 0 mm 1 m/s 755 mmHg 65%
    19:00 +20°C° 0 mm 1 m/s 755 mmHg 68%
    20:00 +17°C° 0 mm 2 m/s 755 mmHg 72%
    21:00 +15°C° 0 mm 2 m/s 754 mmHg 76%
    22:00 +15°C° 0 mm 2 m/s 754 mmHg 76%
    23:00 +14°C° 0 mm 2 m/s 754 mmHg 77%

    Demain, 3 Juin, Mercredi

    Heure Température Précipitation Vent Pression Humidité
    00:00 +14°C° 0 mm 1 m/s 753 mmHg 78%
    01:00 +14°C° 0 mm 1 m/s 753 mmHg 76%
    02:00 +14°C° 0 mm 1 m/s 752 mmHg 74%
    03:00 +14°C° 0 mm 1 m/s 751 mmHg 72%
    04:00 +14°C° 0 mm 2 m/s 751 mmHg 75%
    05:00 +14°C° 0 mm 2 m/s 751 mmHg 78%
    06:00 +13°C° 0 mm 3 m/s 751 mmHg 80%
    07:00 +12°C° 0 mm 3 m/s 751 mmHg 82%
    08:00 +12°C° 0 mm 4 m/s 751 mmHg 83%
    09:00 +12°C° 0 mm 4 m/s 751 mmHg 84%
    10:00 +12°C° 0.1 mm 4 m/s 751 mmHg 84%
    11:00 +12°C° 0.1 mm 4 m/s 750 mmHg 85%
    12:00 +12°C° 0.1 mm 4 m/s 750 mmHg 85%
    13:00 +12°C° 0.1 mm 5 m/s 750 mmHg 85%
    14:00 +12°C° 0.1 mm 5 m/s 750 mmHg 84%
    15:00 +12°C° 0.1 mm 5 m/s 750 mmHg 84%
    16:00 +12°C° 0.1 mm 5 m/s 750 mmHg 85%
    17:00 +12°C° 0.1 mm 5 m/s 750 mmHg 86%
    18:00 +12°C° 0.1 mm 5 m/s 750 mmHg 87%
    19:00 +11°C° 0 mm 4 m/s 750 mmHg 88%
    20:00 +11°C° 0 mm 3 m/s 750 mmHg 90%
    21:00 +10°C° 0 mm 3 m/s 750 mmHg 91%
    22:00 +10°C° 0 mm 3 m/s 750 mmHg 92%
    23:00 +9°C° 0 mm 3 m/s 750 mmHg 93%

    Après-demain, 4 Juin, Jeudi

    Heure Température Précipitation Vent Pression Humidité
    00:00 +9°C° 0 mm 3 m/s 749 mmHg 94%
    01:00 +9°C° 0.2 mm 3 m/s 749 mmHg 94%
    02:00 +8°C° 0.2 mm 4 m/s 749 mmHg 93%
    03:00 +9°C° 0.2 mm 5 m/s 749 mmHg 93%
    04:00 +8°C° 0 mm 5 m/s 749 mmHg 92%
    05:00 +8°C° 0 mm 4 m/s 748 mmHg 90%
    06:00 +8°C° 0 mm 4 m/s 748 mmHg 89%
    07:00 +10°C° 0 mm 4 m/s 748 mmHg 81%
    08:00 +11°C° 0 mm 4 m/s 748 mmHg 73%
    09:00 +12°C° 0 mm 5 m/s 748 mmHg 65%
    10:00 +12°C° 0 mm 4 m/s 747 mmHg 63%
    11:00 +13°C° 0 mm 4 m/s 747 mmHg 62%
    12:00 +13°C° 0 mm 3 m/s 747 mmHg 61%
    13:00 +13°C° 0.2 mm 3 m/s 746 mmHg 66%
    14:00 +12°C° 0.2 mm 3 m/s 746 mmHg 72%
    15:00 +12°C° 0.2 mm 3 m/s 746 mmHg 77%
    16:00 +12°C° 0.2 mm 3 m/s 745 mmHg 77%
    17:00 +13°C° 0.2 mm 2 m/s 745 mmHg 77%
    18:00 +13°C° 0.2 mm 1 m/s 745 mmHg 76%
    19:00 +12°C° 0.3 mm 2 m/s 745 mmHg 81%
    20:00 +10°C° 0.3 mm 2 m/s 745 mmHg 85%
    21:00 +9°C° 0.3 mm 2 m/s 745 mmHg 89%
    22:00 +8°C° 0.2 mm 3 m/s 745 mmHg 91%
    23:00 +8°C° 0.2 mm 3 m/s 744 mmHg 93%

    5 Juin, Vendredi

    Heure Température Précipitation Vent Pression Humidité
    00:00 +8°C° 0.2 mm 3 m/s 744 mmHg 94%
    01:00 +7°C° 0.1 mm 4 m/s 744 mmHg 94%
    02:00 +6°C° 0.1 mm 4 m/s 743 mmHg 94%
    03:00 +6°C° 0.1 mm 5 m/s 743 mmHg 94%
    04:00 +7°C° 0 mm 5 m/s 743 mmHg 93%
    05:00 +7°C° 0 mm 5 m/s 743 mmHg 92%
    06:00 +8°C° 0 mm 5 m/s 743 mmHg 91%
    07:00 +8°C° 0.1 mm 4 m/s 743 mmHg 87%
    08:00 +10°C° 0.1 mm 4 m/s 743 mmHg 83%
    09:00 +11°C° 0.1 mm 3 m/s 742 mmHg 78%
    10:00 +12°C° 0.3 mm 4 m/s 742 mmHg 75%
    11:00 +13°C° 0.3 mm 5 m/s 742 mmHg 71%
    12:00 +13°C° 0.3 mm 5 m/s 742 mmHg 67%
    13:00 +14°C° 0.2 mm 6 m/s 741 mmHg 64%
    14:00 +14°C° 0.2 mm 6 m/s 741 mmHg 61%
    15:00 +14°C° 0.2 mm 6 m/s 741 mmHg 58%
    16:00 +14°C° 0.1 mm 6 m/s 741 mmHg 60%
    17:00 +13°C° 0.1 mm 6 m/s 740 mmHg 61%
    18:00 +12°C° 0.1 mm 5 m/s 740 mmHg 63%
    19:00 +10°C° 0 mm 5 m/s 741 mmHg 66%
    20:00 +9°C° 0 mm 5 m/s 741 mmHg 69%
    21:00 +7°C° 0 mm 5 m/s 741 mmHg 72%
    22:00 +7°C° 0 mm 5 m/s 742 mmHg 72%
    23:00 +6°C° 0 mm 5 m/s 742 mmHg 73%

    6 Juin, Samedi

    Heure Température Précipitation Vent Pression Humidité
    00:00 +6°C° 0 mm 5 m/s 742 mmHg 73%
    01:00 +5°C° 0 mm 5 m/s 742 mmHg 74%
    02:00 +5°C° 0 mm 5 m/s 742 mmHg 75%
    03:00 +5°C° 0 mm 5 m/s 743 mmHg 75%
    04:00 +4°C° 0 mm 6 m/s 743 mmHg 75%
    05:00 +5°C° 0 mm 6 m/s 743 mmHg 74%
    06:00 +6°C° 0 mm 7 m/s 743 mmHg 73%
    07:00 +8°C° 0.1 mm 7 m/s 743 mmHg 70%
    08:00 +7°C° 0.1 mm 8 m/s 743 mmHg 67%
    09:00 +9°C° 0.1 mm 8 m/s 743 mmHg 64%
    10:00 +10°C° 0.2 mm 8 m/s 743 mmHg 63%
    11:00 +10°C° 0.2 mm 8 m/s 743 mmHg 62%
    12:00 +11°C° 0.2 mm 8 m/s 743 mmHg 61%
    13:00 +11°C° 0.2 mm 8 m/s 743 mmHg 62%
    14:00 +11°C° 0.2 mm 8 m/s 743 mmHg 63%
    15:00 +11°C° 0.2 mm 8 m/s 743 mmHg 65%
    16:00 +10°C° 0.2 mm 7 m/s 743 mmHg 66%
    17:00 +10°C° 0.2 mm 6 m/s 743 mmHg 68%
    18:00 +10°C° 0.2 mm 6 m/s 743 mmHg 70%
    19:00 +9°C° 0 mm 6 m/s 743 mmHg 70%
    20:00 +8°C° 0 mm 5 m/s 743 mmHg 70%
    21:00 +7°C° 0 mm 5 m/s 743 mmHg 70%
    22:00 +7°C° 0 mm 5 m/s 743 mmHg 73%
    23:00 +6°C° 0 mm 5 m/s 743 mmHg 75%

    7 Juin, Dimanche

    Heure Température Précipitation Vent Pression Humidité
    00:00 +6°C° 0 mm 5 m/s 743 mmHg 78%
    01:00 +6°C° 0 mm 5 m/s 742 mmHg 78%
    02:00 +5°C° 0 mm 6 m/s 742 mmHg 78%
    03:00 +5°C° 0 mm 6 m/s 742 mmHg 79%
    04:00 +5°C° 0.1 mm 6 m/s 742 mmHg 82%
    05:00 +5°C° 0.1 mm 7 m/s 741 mmHg 84%
    06:00 +6°C° 0.1 mm 7 m/s 741 mmHg 87%
    07:00 +8°C° 0.3 mm 7 m/s 741 mmHg 88%
    08:00 +9°C° 0.3 mm 6 m/s 741 mmHg 89%
    09:00 +10°C° 0.3 mm 6 m/s 741 mmHg 89%
    10:00 +10°C° 0.7 mm 6 m/s 741 mmHg 86%
    11:00 +11°C° 0.7 mm 6 m/s 741 mmHg 84%
    12:00 +12°C° 0.7 mm 7 m/s 741 mmHg 81%
    13:00 +14°C° 0.4 mm 6 m/s 741 mmHg 78%
    14:00 +14°C° 0.4 mm 6 m/s 741 mmHg 76%
    15:00 +15°C° 0.4 mm 6 m/s 741 mmHg 73%
    16:00 +14°C° 0.5 mm 6 m/s 741 mmHg 77%
    17:00 +13°C° 0.5 mm 6 m/s 741 mmHg 81%
    18:00 +13°C° 0.5 mm 6 m/s 742 mmHg 85%
    19:00 +12°C° 0 mm 5 m/s 742 mmHg 87%
    20:00 +9°C° 0 mm 5 m/s 743 mmHg 88%
    21:00 +8°C° 0 mm 5 m/s 743 mmHg 90%
    22:00 +8°C° 0.6 mm 5 m/s 743 mmHg 91%
    23:00 +8°C° 0.6 mm 5 m/s 743 mmHg 92%
    Voir plus